EN

Hourly Weather Lachowskie

Today, 3 August, Tuesday

Time Temperature Precipitation Wind Pressure Humidity
00:00 +13°C° 0 mm 3 mps 742 mmHg 83%
01:00 +13°C° 0 mm 3 mps 743 mmHg 84%
02:00 +13°C° 0 mm 3 mps 743 mmHg 82%
03:00 +14°C° 0 mm 2 mps 743 mmHg 81%
04:00 +14°C° 0 mm 2 mps 743 mmHg 80%
05:00 +15°C° 0 mm 2 mps 743 mmHg 77%
06:00 +17°C° 0 mm 2 mps 743 mmHg 74%
07:00 +18°C° 0 mm 2 mps 743 mmHg 71%
08:00 +19°C° 0.1 mm 2 mps 743 mmHg 65%
09:00 +21°C° 0.1 mm 2 mps 743 mmHg 59%
10:00 +23°C° 0.1 mm 2 mps 743 mmHg 52%
11:00 +23°C° 0.3 mm 2 mps 743 mmHg 51%
12:00 +24°C° 0.3 mm 3 mps 743 mmHg 50%
13:00 +24°C° 0.3 mm 3 mps 743 mmHg 48%
14:00 +24°C° 0 mm 2 mps 742 mmHg 50%
15:00 +24°C° 0 mm 1 mps 742 mmHg 52%
16:00 +24°C° 0 mm 1 mps 742 mmHg 54%
17:00 +23°C° 0 mm 1 mps 742 mmHg 56%
18:00 +22°C° 0 mm 1 mps 742 mmHg 59%
19:00 +21°C° 0 mm 1 mps 742 mmHg 62%
20:00 +20°C° 0.3 mm 1 mps 742 mmHg 66%
21:00 +19°C° 0.3 mm 1 mps 742 mmHg 71%
22:00 +17°C° 0.3 mm 2 mps 742 mmHg 75%
23:00 +18°C° 0.2 mm 1 mps 742 mmHg 77%

Tomorrow, 4 August, Wednesday

Time Temperature Precipitation Wind Pressure Humidity
00:00 +18°C° 0.2 mm 1 mps 742 mmHg 78%
01:00 +16°C° 0.2 mm 1 mps 742 mmHg 80%
02:00 +16°C° 0 mm 1 mps 742 mmHg 80%
03:00 +16°C° 0 mm 1 mps 742 mmHg 80%
04:00 +16°C° 0 mm 1 mps 742 mmHg 80%
05:00 +16°C° 0.3 mm 2 mps 742 mmHg 84%
06:00 +16°C° 0.3 mm 2 mps 742 mmHg 87%
07:00 +16°C° 0.3 mm 3 mps 743 mmHg 91%
08:00 +16°C° 0.8 mm 3 mps 743 mmHg 91%
09:00 +16°C° 0.8 mm 3 mps 743 mmHg 91%
10:00 +16°C° 0.8 mm 2 mps 743 mmHg 92%
11:00 +17°C° 0 mm 2 mps 743 mmHg 88%
12:00 +18°C° 0 mm 1 mps 743 mmHg 84%
13:00 +19°C° 0 mm 1 mps 742 mmHg 80%
14:00 +19°C° 0 mm 1 mps 742 mmHg 77%
15:00 +20°C° 0 mm 1 mps 742 mmHg 73%
16:00 +21°C° 0 mm 1 mps 742 mmHg 69%
17:00 +20°C° 0 mm 1 mps 742 mmHg 72%
18:00 +19°C° 0 mm 2 mps 742 mmHg 74%
19:00 +18°C° 0 mm 2 mps 742 mmHg 77%
20:00 +17°C° 0 mm 2 mps 742 mmHg 80%
21:00 +17°C° 0 mm 2 mps 742 mmHg 84%
22:00 +16°C° 0 mm 2 mps 742 mmHg 87%
23:00 +15°C° 0 mm 2 mps 742 mmHg 89%

Day after tomorrow, 5 August, Thursday

Time Temperature Precipitation Wind Pressure Humidity
00:00 +15°C° 0 mm 2 mps 741 mmHg 91%
01:00 +15°C° 0 mm 2 mps 741 mmHg 93%
02:00 +15°C° 0 mm 2 mps 741 mmHg 93%
03:00 +14°C° 0 mm 2 mps 741 mmHg 94%
04:00 +14°C° 0 mm 2 mps 741 mmHg 94%
05:00 +15°C° 0 mm 2 mps 741 mmHg 91%
06:00 +16°C° 0 mm 3 mps 741 mmHg 88%
07:00 +16°C° 0 mm 3 mps 741 mmHg 85%
08:00 +17°C° 0.1 mm 3 mps 740 mmHg 81%
09:00 +18°C° 0.1 mm 3 mps 740 mmHg 78%
10:00 +18°C° 0.1 mm 3 mps 740 mmHg 74%
11:00 +18°C° 0.2 mm 3 mps 740 mmHg 78%
12:00 +17°C° 0.2 mm 3 mps 740 mmHg 82%
13:00 +17°C° 0.2 mm 3 mps 740 mmHg 86%
14:00 +17°C° 0 mm 3 mps 739 mmHg 85%
15:00 +17°C° 0 mm 3 mps 739 mmHg 84%
16:00 +17°C° 0 mm 3 mps 739 mmHg 83%
17:00 +17°C° 0 mm 3 mps 738 mmHg 85%
18:00 +17°C° 0 mm 3 mps 738 mmHg 87%
19:00 +16°C° 0 mm 2 mps 737 mmHg 89%
20:00 +16°C° 0.1 mm 2 mps 737 mmHg 90%
21:00 +16°C° 0.1 mm 3 mps 737 mmHg 91%
22:00 +16°C° 0.1 mm 3 mps 737 mmHg 92%
23:00 +16°C° 0.4 mm 3 mps 737 mmHg 92%

6 August, Friday

Time Temperature Precipitation Wind Pressure Humidity
00:00 +16°C° 0.4 mm 3 mps 737 mmHg 93%
01:00 +15°C° 0.4 mm 4 mps 736 mmHg 93%
02:00 +14°C° 0.3 mm 4 mps 736 mmHg 94%
03:00 +14°C° 0.3 mm 4 mps 736 mmHg 94%
04:00 +14°C° 0.3 mm 4 mps 736 mmHg 95%
05:00 +14°C° 0.1 mm 4 mps 736 mmHg 95%
06:00 +14°C° 0.1 mm 4 mps 736 mmHg 95%
07:00 +14°C° 0.1 mm 4 mps 736 mmHg 95%
08:00 +15°C° 0 mm 4 mps 737 mmHg 93%
09:00 +17°C° 0 mm 4 mps 737 mmHg 90%
10:00 +17°C° 0 mm 4 mps 737 mmHg 87%
11:00 +18°C° 0.2 mm 4 mps 737 mmHg 84%
12:00 +18°C° 0.2 mm 4 mps 737 mmHg 81%
13:00 +19°C° 0.2 mm 4 mps 737 mmHg 79%
14:00 +19°C° 0.1 mm 4 mps 737 mmHg 74%
15:00 +20°C° 0.1 mm 3 mps 738 mmHg 70%
16:00 +21°C° 0.1 mm 3 mps 738 mmHg 65%
17:00 +20°C° 0 mm 2 mps 738 mmHg 69%
18:00 +19°C° 0 mm 2 mps 738 mmHg 73%
19:00 +18°C° 0 mm 2 mps 738 mmHg 77%
20:00 +18°C° 0 mm 2 mps 738 mmHg 81%
21:00 +17°C° 0 mm 2 mps 738 mmHg 84%
22:00 +16°C° 0 mm 2 mps 738 mmHg 87%
23:00 +16°C° 0 mm 2 mps 739 mmHg 88%

7 August, Saturday

Time Temperature Precipitation Wind Pressure Humidity
00:00 +15°C° 0 mm 2 mps 739 mmHg 90%
01:00 +15°C° 0 mm 2 mps 739 mmHg 91%
02:00 +15°C° 0 mm 2 mps 739 mmHg 92%
03:00 +15°C° 0 mm 2 mps 739 mmHg 92%
04:00 +14°C° 0 mm 2 mps 739 mmHg 93%
05:00 +16°C° 0 mm 2 mps 739 mmHg 87%
06:00 +17°C° 0 mm 2 mps 740 mmHg 81%
07:00 +19°C° 0 mm 2 mps 740 mmHg 74%
08:00 +21°C° 0 mm 2 mps 740 mmHg 67%
09:00 +22°C° 0 mm 3 mps 740 mmHg 61%
10:00 +25°C° 0 mm 3 mps 740 mmHg 54%
11:00 +26°C° 0 mm 3 mps 740 mmHg 50%
12:00 +27°C° 0 mm 3 mps 740 mmHg 46%
13:00 +28°C° 0 mm 3 mps 739 mmHg 43%
14:00 +28°C° 0 mm 3 mps 739 mmHg 41%
15:00 +29°C° 0 mm 3 mps 739 mmHg 40%
16:00 +29°C° 0 mm 2 mps 739 mmHg 38%
17:00 +28°C° 0 mm 2 mps 739 mmHg 44%
18:00 +26°C° 0 mm 2 mps 739 mmHg 49%
19:00 +25°C° 0 mm 1 mps 739 mmHg 55%
20:00 +24°C° 0 mm 2 mps 739 mmHg 57%
21:00 +22°C° 0 mm 3 mps 739 mmHg 59%
22:00 +22°C° 0 mm 5 mps 739 mmHg 62%
23:00 +21°C° 0 mm 5 mps 739 mmHg 63%

8 August, Sunday

Time Temperature Precipitation Wind Pressure Humidity
00:00 +21°C° 0 mm 5 mps 738 mmHg 64%
01:00 +21°C° 0 mm 6 mps 738 mmHg 65%
02:00 +21°C° 0 mm 5 mps 738 mmHg 64%
03:00 +21°C° 0 mm 4 mps 738 mmHg 64%
04:00 +21°C° 0 mm 4 mps 738 mmHg 64%
05:00 +20°C° 0.4 mm 4 mps 739 mmHg 73%
06:00 +20°C° 0.4 mm 4 mps 739 mmHg 81%
07:00 +19°C° 0.4 mm 4 mps 740 mmHg 90%
08:00 +19°C° 0.3 mm 5 mps 741 mmHg 87%
09:00 +20°C° 0.3 mm 5 mps 741 mmHg 84%
10:00 +20°C° 0.3 mm 6 mps 742 mmHg 80%
11:00 +21°C° 0.2 mm 6 mps 742 mmHg 75%
12:00 +21°C° 0.2 mm 5 mps 743 mmHg 70%
13:00 +22°C° 0.2 mm 5 mps 743 mmHg 65%
14:00 +21°C° 0.6 mm 5 mps 744 mmHg 69%
15:00 +20°C° 0.6 mm 4 mps 744 mmHg 73%
16:00 +19°C° 0.6 mm 3 mps 744 mmHg 77%
17:00 +19°C° 0 mm 3 mps 744 mmHg 76%
18:00 +19°C° 0 mm 3 mps 745 mmHg 76%
19:00 +19°C° 0 mm 3 mps 745 mmHg 76%
20:00 +19°C° 0 mm 3 mps 745 mmHg 77%
21:00 +18°C° 0 mm 3 mps 746 mmHg 78%
22:00 +17°C° 0 mm 3 mps 746 mmHg 79%
23:00 +17°C° 0 mm 3 mps 746 mmHg 80%
Show more